Weather in Bolshiye Bory

Russia / Novgorod Oblast     57°51′01″N   31°05′49″E
temp.,
°C
wind,
m/s
gust,
m/s
humid.,
%
clouds,
%
prec.,
mm/h
press.,
hPa
HPBL,
m
28 january, thu
thu2800:00−3s229870 0.1 100433
03:00−3s119751 0.1 100421
06:00−3s129666 0.1 100521
09:00−3se239766 0.1 1005119
12:00−1ese2489100 0.1 1005389
15:000ese2384100 0.1 1004447
18:00−1e2491100 0.0 1003236
21:00−2e2597100 0.1 1001224
29 january, fri
fri2900:00−3ene2498100 0.2 999173
03:00−3ne2497100 0.4 998194
06:00−2nne3696100 0.8 994317
09:00−3nne3796100 2.4 991340
12:00−2ne2597100 1.8 989185
15:00+1ese4984100 2.0 987695
18:00−2ese398490 0.1 986308
21:00−4e269789 0.1 986231
30 january, sat
sat3000:00−3e259799 0.4 986210
03:00−5sse119892 0.6 98621
06:00−5ssw239795 0.1 985119
09:00−5ssw369597 0.4 985296
12:00−3ssw3791100 0.2 986541
15:00−3ssw3789100 0.5 987648
18:00−3ssw51092100 0.9 987723
21:00−4ssw51189100 1.1 988575
31 january, sun
sun3100:00−5s499298 0.1 988529
03:00−5ssw489199 0.3 989596
06:00−5ssw3894100 0.1 989399
09:00−6ssw369499 0.2 989314
12:00−5wsw358891 0.1 990532
15:00−4wsw368695 0.1 991595
18:00−5wsw399298 0.1 992563
21:00−5wsw399391 0.1 994446
1 february, mon
mon100:00−5sw4109292 0.1 996644
03:00−5sw5129096 0.2 998655
06:00−6sw4109386 0.0 999430
09:00−5ssw4109489 0.1 1000407
12:00−4sw4888100 0.1 1002598
15:00−4sw368699 0.3 1003596
18:00−5ssw2490100 0.1 1004409
21:00−6sw2390100 0.1 1004209